NANOZOND 1 (RS49S)

Last updated on Mon Sep 15 2025 00:03:09 GMT+0000 (Coordinated Universal Time)

1 57190U 23091AA 25257.19996252 .00026745 00000+0 64824-3 0 9991 2 57190 97.5447 323.4837 0004402 315.0049 45.0840 15.41040894122868
UTC large
Height (km)
Speed (km/s)
/
Latitude / Longitude
Inclination (degrees)
Orbital Period (minutes)
Azimuth
Elevation
Range (km)
Doppler Factor

Next 0 passes for location: London (51.5072 / 0.1276)

Sorry there are no passes over London.